Year,Month,Day,Hour,Minute,Value (Times are PST for windgust in km/hr)
2011,02,27,00,00,6.40
2011,02,27,00,01,8.10
2011,02,27,00,02,8.10
2011,02,27,00,03,8.10
2011,02,27,00,04,9.60
2011,02,27,00,05,9.60
2011,02,27,00,06,3.20
2011,02,27,00,07,6.40
2011,02,27,00,08,3.20
2011,02,27,00,09,3.20
2011,02,27,00,10,4.80
2011,02,27,00,11,4.80
2011,02,27,00,12,16.10
2011,02,27,00,13,17.70
2011,02,27,00,14,12.90
2011,02,27,00,15,8.10
2011,02,27,00,16,8.10
2011,02,27,00,17,6.40
2011,02,27,00,18,3.20
2011,02,27,00,19,4.80
2011,02,27,00,20,8.10
2011,02,27,00,21,3.20
2011,02,27,00,22,4.80
2011,02,27,00,23,4.80
2011,02,27,00,24,3.20
2011,02,27,00,25,1.60
2011,02,27,00,30,1.60
2011,02,27,00,31,4.80
2011,02,27,00,32,4.80
2011,02,27,00,33,6.40
2011,02,27,00,34,6.40
2011,02,27,00,35,6.40
2011,02,27,00,36,3.20
2011,02,27,00,37,3.20
2011,02,27,00,38,1.60
2011,02,27,00,39,1.60
2011,02,27,00,40,3.20
2011,02,27,00,41,4.80
2011,02,27,00,42,6.40
2011,02,27,00,43,8.10
2011,02,27,00,44,4.80
2011,02,27,00,45,3.20
2011,02,27,00,46,3.20
2011,02,27,00,47,1.60
2011,02,27,00,49,1.60
2011,02,27,00,50,3.20
2011,02,27,00,51,3.20
2011,02,27,00,52,4.80
2011,02,27,00,53,4.80
2011,02,27,00,54,1.60
2011,02,27,00,56,3.20
2011,02,27,00,57,6.40
2011,02,27,00,58,3.20
2011,02,27,00,59,3.20
2011,02,27,01,00,4.80
2011,02,27,01,01,4.80
2011,02,27,01,02,1.60
2011,02,27,01,03,3.20
2011,02,27,01,04,3.20
2011,02,27,01,05,1.60
2011,02,27,01,06,3.20
2011,02,27,01,07,1.60
2011,02,27,01,08,1.60
2011,02,27,01,09,1.60
2011,02,27,01,10,4.80
2011,02,27,01,11,8.10
2011,02,27,01,12,4.80
2011,02,27,01,13,1.60
2011,02,27,01,14,1.60
2011,02,27,01,16,3.20
2011,02,27,01,17,3.20
2011,02,27,01,19,3.20
2011,02,27,01,20,4.80
2011,02,27,01,21,3.20
2011,02,27,01,22,3.20
2011,02,27,01,23,1.60
2011,02,27,01,25,3.20
2011,02,27,01,26,4.80
2011,02,27,01,27,3.20
2011,02,27,01,28,1.60
2011,02,27,01,30,3.20
2011,02,27,01,31,3.20
2011,02,27,01,32,3.20
2011,02,27,01,33,3.20
2011,02,27,01,34,1.60
2011,02,27,01,35,1.60
2011,02,27,01,36,1.60
2011,02,27,01,37,4.80
2011,02,27,01,38,3.20
2011,02,27,01,39,3.20
2011,02,27,01,40,8.10
2011,02,27,01,41,8.10
2011,02,27,01,42,8.10
2011,02,27,01,43,8.10
2011,02,27,01,44,6.40
2011,02,27,01,45,3.20
2011,02,27,01,46,3.20
2011,02,27,01,47,4.80
2011,02,27,01,48,3.20
2011,02,27,01,49,3.20
2011,02,27,01,50,3.20
2011,02,27,01,51,4.80
2011,02,27,01,52,3.20
2011,02,27,01,53,6.40
2011,02,27,01,54,6.40
2011,02,27,01,55,6.40
2011,02,27,01,56,8.10
2011,02,27,01,57,4.80
2011,02,27,01,58,3.20
2011,02,27,01,59,3.20
2011,02,27,02,00,3.20
2011,02,27,02,01,8.10
2011,02,27,02,02,6.40
2011,02,27,02,03,4.80
2011,02,27,02,04,3.20
2011,02,27,02,05,1.60
2011,02,27,02,06,6.40
2011,02,27,02,07,4.80
2011,02,27,02,08,3.20
2011,02,27,02,09,3.20
2011,02,27,02,10,3.20
2011,02,27,02,11,8.10
2011,02,27,02,12,8.10
2011,02,27,02,13,6.40
2011,02,27,02,14,3.20
2011,02,27,02,15,3.20
2011,02,27,02,16,3.20
2011,02,27,02,17,4.80
2011,02,27,02,18,3.20
2011,02,27,02,19,4.80
2011,02,27,02,20,1.60
2011,02,27,02,21,3.20
2011,02,27,02,22,6.40
2011,02,27,02,23,4.80
2011,02,27,02,24,3.20
2011,02,27,02,25,1.60
2011,02,27,02,26,3.20
2011,02,27,02,27,3.20
2011,02,27,02,28,8.10
2011,02,27,02,29,9.60
2011,02,27,02,30,9.60
2011,02,27,02,31,16.10
2011,02,27,02,32,14.50
2011,02,27,02,33,9.60
2011,02,27,02,34,9.60
2011,02,27,02,35,11.30
2011,02,27,02,36,9.60
2011,02,27,02,37,6.40
2011,02,27,02,38,4.80
2011,02,27,02,39,8.10
2011,02,27,02,40,6.40
2011,02,27,02,41,11.30
2011,02,27,02,42,9.60
2011,02,27,02,43,11.30
2011,02,27,02,44,11.30
2011,02,27,02,45,11.30
2011,02,27,02,46,11.30
2011,02,27,02,47,6.40
2011,02,27,02,48,3.20
2011,02,27,02,49,4.80
2011,02,27,02,50,4.80
2011,02,27,02,51,3.20
2011,02,27,02,52,6.40
2011,02,27,02,53,8.10
2011,02,27,02,54,11.30
2011,02,27,02,55,8.10
2011,02,27,02,56,6.40
2011,02,27,02,57,8.10
2011,02,27,02,58,9.60
2011,02,27,02,59,9.60
2011,02,27,03,00,9.60
2011,02,27,03,01,8.10
2011,02,27,03,02,4.80
2011,02,27,03,03,3.20
2011,02,27,03,04,6.40
2011,02,27,03,05,4.80
2011,02,27,03,06,3.20
2011,02,27,03,07,1.60
2011,02,27,03,10,1.60
2011,02,27,03,11,1.60
2011,02,27,03,12,1.60
2011,02,27,03,13,1.60
2011,02,27,03,14,3.20
2011,02,27,03,15,3.20
2011,02,27,03,16,3.20
2011,02,27,03,17,3.20
2011,02,27,03,18,1.60
2011,02,27,03,19,1.60
2011,02,27,03,20,3.20
2011,02,27,03,21,4.80
2011,02,27,03,22,14.50
2011,02,27,03,23,17.70
2011,02,27,03,24,12.90
2011,02,27,03,25,11.30
2011,02,27,03,26,6.40
2011,02,27,03,27,6.40
2011,02,27,03,28,9.60
2011,02,27,03,29,9.60
2011,02,27,03,30,11.30
2011,02,27,03,31,9.60
2011,02,27,03,32,9.60
2011,02,27,03,33,8.10
2011,02,27,03,34,4.80
2011,02,27,03,35,4.80
2011,02,27,03,36,4.80
2011,02,27,03,37,4.80
2011,02,27,03,38,8.10
2011,02,27,03,39,8.10
2011,02,27,03,40,8.10
2011,02,27,03,41,6.40
2011,02,27,03,42,11.30
2011,02,27,03,43,3.20
2011,02,27,03,45,6.40
2011,02,27,03,46,6.40
2011,02,27,03,47,3.20
2011,02,27,03,48,6.40
2011,02,27,03,49,6.40
2011,02,27,03,50,3.20
2011,02,27,03,51,3.20
2011,02,27,03,52,3.20
2011,02,27,03,53,3.20
2011,02,27,03,54,3.20
2011,02,27,03,55,6.40
2011,02,27,03,56,4.80
2011,02,27,03,57,6.40
2011,02,27,03,58,8.10
2011,02,27,03,59,3.20
2011,02,27,04,00,3.20
2011,02,27,04,01,1.60
2011,02,27,04,02,1.60
2011,02,27,04,03,1.60
2011,02,27,04,07,1.60
2011,02,27,04,08,1.60
2011,02,27,04,09,6.40
2011,02,27,04,10,6.40
2011,02,27,04,11,6.40
2011,02,27,04,12,4.80
2011,02,27,04,13,4.80
2011,02,27,04,14,3.20
2011,02,27,04,15,1.60
2011,02,27,04,16,3.20
2011,02,27,04,17,1.60
2011,02,27,04,18,1.60
2011,02,27,04,19,1.60
2011,02,27,04,20,3.20
2011,02,27,04,21,3.20
2011,02,27,04,22,3.20
2011,02,27,04,23,4.80
2011,02,27,04,24,4.80
2011,02,27,04,25,4.80
2011,02,27,04,26,3.20
2011,02,27,04,27,4.80
2011,02,27,04,28,1.60
2011,02,27,04,29,1.60
2011,02,27,04,30,3.20
2011,02,27,04,31,3.20
2011,02,27,04,32,1.60
2011,02,27,04,33,1.60
2011,02,27,04,35,3.20
2011,02,27,04,36,1.60
2011,02,27,04,37,1.60
2011,02,27,04,38,4.80
2011,02,27,04,39,6.40
2011,02,27,04,40,9.60
2011,02,27,04,41,4.80
2011,02,27,04,42,6.40
2011,02,27,04,43,4.80
2011,02,27,04,44,3.20
2011,02,27,04,45,3.20
2011,02,27,04,48,1.60
2011,02,27,04,49,3.20
2011,02,27,04,50,3.20
2011,02,27,04,51,1.60
2011,02,27,04,52,8.10
2011,02,27,04,53,12.90
2011,02,27,04,54,12.90
2011,02,27,04,55,9.60
2011,02,27,04,56,11.30
2011,02,27,04,57,8.10
2011,02,27,04,58,8.10
2011,02,27,04,59,4.80
2011,02,27,05,00,4.80
2011,02,27,05,01,6.40
2011,02,27,05,02,9.60
2011,02,27,05,03,8.10
2011,02,27,05,04,6.40
2011,02,27,05,05,8.10
2011,02,27,05,06,11.30
2011,02,27,05,07,6.40
2011,02,27,05,08,4.80
2011,02,27,05,09,3.20
2011,02,27,05,10,3.20
2011,02,27,05,11,3.20
2011,02,27,05,12,6.40
2011,02,27,05,13,8.10
2011,02,27,05,14,8.10
2011,02,27,05,15,9.60
2011,02,27,05,16,11.30
2011,02,27,05,17,9.60
2011,02,27,05,18,8.10
2011,02,27,05,19,1.60
2011,02,27,05,21,3.20
2011,02,27,05,22,6.40
2011,02,27,05,23,8.10
2011,02,27,05,24,8.10
2011,02,27,05,25,8.10
2011,02,27,05,26,6.40
2011,02,27,05,27,8.10
2011,02,27,05,28,8.10
2011,02,27,05,29,8.10
2011,02,27,05,30,4.80
2011,02,27,05,31,3.20
2011,02,27,05,32,4.80
2011,02,27,05,33,6.40
2011,02,27,05,34,8.10
2011,02,27,05,35,3.20
2011,02,27,05,36,3.20
2011,02,27,05,37,1.60
2011,02,27,05,38,1.60
2011,02,27,05,39,3.20
2011,02,27,05,40,4.80
2011,02,27,05,41,4.80
2011,02,27,05,42,4.80
2011,02,27,05,43,6.40
2011,02,27,05,44,4.80
2011,02,27,05,45,3.20
2011,02,27,05,46,8.10
2011,02,27,05,47,8.10
2011,02,27,05,48,6.40
2011,02,27,05,49,8.10
2011,02,27,05,50,6.40
2011,02,27,05,51,6.40
2011,02,27,05,52,6.40
2011,02,27,05,53,3.20
2011,02,27,05,54,6.40
2011,02,27,05,55,6.40
2011,02,27,05,56,3.20
2011,02,27,05,57,3.20
2011,02,27,05,58,6.40
2011,02,27,05,59,3.20
2011,02,27,06,00,8.10
2011,02,27,06,01,6.40
2011,02,27,06,02,1.60
2011,02,27,06,04,8.10
2011,02,27,06,05,11.30
2011,02,27,06,06,4.80
2011,02,27,06,07,3.20
2011,02,27,06,08,6.40
2011,02,27,06,09,6.40
2011,02,27,06,10,12.90
2011,02,27,06,11,8.10
2011,02,27,06,12,8.10
2011,02,27,06,13,8.10
2011,02,27,06,14,8.10
2011,02,27,06,15,6.40
2011,02,27,06,16,4.80
2011,02,27,06,17,6.40
2011,02,27,06,18,8.10
2011,02,27,06,19,8.10
2011,02,27,06,20,8.10
2011,02,27,06,21,8.10
2011,02,27,06,22,11.30
2011,02,27,06,23,6.40
2011,02,27,06,24,8.10
2011,02,27,06,25,9.60
2011,02,27,06,26,8.10
2011,02,27,06,27,6.40
2011,02,27,06,28,12.90
2011,02,27,06,29,11.30
2011,02,27,06,30,11.30
2011,02,27,06,31,9.60
2011,02,27,06,32,8.10
2011,02,27,06,33,8.10
2011,02,27,06,34,11.30
2011,02,27,06,35,11.30
2011,02,27,06,36,8.10
2011,02,27,06,37,8.10
2011,02,27,06,38,8.10
2011,02,27,06,39,12.90
2011,02,27,06,40,8.10
2011,02,27,06,41,6.40
2011,02,27,06,42,6.40
2011,02,27,06,43,8.10
2011,02,27,06,44,8.10
2011,02,27,06,45,11.30
2011,02,27,06,46,8.10
2011,02,27,06,47,6.40
2011,02,27,06,48,4.80
2011,02,27,06,49,3.20
2011,02,27,06,50,3.20
2011,02,27,06,51,4.80
2011,02,27,06,52,6.40
2011,02,27,06,53,4.80
2011,02,27,06,54,4.80
2011,02,27,06,55,9.60
2011,02,27,06,56,11.30
2011,02,27,06,57,6.40
2011,02,27,06,58,8.10
2011,02,27,06,59,6.40
2011,02,27,07,00,8.10
2011,02,27,07,01,6.40
2011,02,27,07,02,9.60
2011,02,27,07,03,9.60
2011,02,27,07,04,9.60
2011,02,27,07,05,8.10
2011,02,27,07,06,14.50
2011,02,27,07,07,9.60
2011,02,27,07,08,6.40
2011,02,27,07,09,6.40
2011,02,27,07,10,6.40
2011,02,27,07,11,9.60
2011,02,27,07,12,9.60
2011,02,27,07,13,11.30
2011,02,27,07,14,11.30
2011,02,27,07,15,8.10
2011,02,27,07,16,4.80
2011,02,27,07,17,8.10
2011,02,27,07,18,9.60
2011,02,27,07,19,4.80
2011,02,27,07,20,9.60
2011,02,27,07,21,8.10
2011,02,27,07,22,4.80
2011,02,27,07,23,11.30
2011,02,27,07,24,12.90
2011,02,27,07,25,6.40
2011,02,27,07,26,9.60
2011,02,27,07,27,9.60
2011,02,27,07,28,11.30
2011,02,27,07,29,6.40
2011,02,27,07,30,8.10
2011,02,27,07,31,6.40
2011,02,27,07,32,4.80
2011,02,27,07,33,6.40
2011,02,27,07,34,6.40
2011,02,27,07,35,6.40
2011,02,27,07,36,4.80
2011,02,27,07,37,3.20
2011,02,27,07,38,3.20
2011,02,27,07,39,8.10
2011,02,27,07,40,8.10
2011,02,27,07,41,16.10
2011,02,27,07,42,14.50
2011,02,27,07,43,17.70
2011,02,27,07,44,9.60
2011,02,27,07,45,6.40
2011,02,27,07,46,16.10
2011,02,27,07,47,12.90
2011,02,27,07,48,27.40
2011,02,27,07,49,24.20
2011,02,27,07,50,14.50
2011,02,27,07,51,22.50
2011,02,27,07,52,19.30
2011,02,27,07,53,22.50
2011,02,27,07,54,20.90
2011,02,27,07,55,19.30
2011,02,27,07,56,17.70
2011,02,27,07,57,14.50
2011,02,27,07,58,16.10
2011,02,27,07,59,12.90
2011,02,27,08,00,12.90
2011,02,27,08,01,8.10
2011,02,27,08,02,16.10
2011,02,27,08,03,14.50
2011,02,27,08,04,14.50
2011,02,27,08,05,16.10
2011,02,27,08,06,9.60
2011,02,27,08,07,6.40
2011,02,27,08,08,6.40
2011,02,27,08,09,1.60
2011,02,27,08,10,1.60
2011,02,27,08,12,1.60
2011,02,27,08,13,1.60
2011,02,27,08,14,1.60
2011,02,27,08,15,1.60
2011,02,27,08,16,4.80
2011,02,27,08,17,3.20
2011,02,27,08,18,3.20
2011,02,27,08,19,3.20
2011,02,27,08,20,1.60
2011,02,27,08,21,1.60
2011,02,27,08,22,1.60
2011,02,27,08,23,3.20
2011,02,27,08,24,4.80
2011,02,27,08,25,1.60
2011,02,27,08,26,1.60
2011,02,27,08,27,1.60
2011,02,27,08,28,1.60
2011,02,27,08,29,1.60
2011,02,27,08,30,3.20
2011,02,27,08,31,4.80
2011,02,27,08,32,8.10
2011,02,27,08,33,6.40
2011,02,27,08,34,8.10
2011,02,27,08,35,6.40
2011,02,27,08,36,8.10
2011,02,27,08,37,6.40
2011,02,27,08,38,4.80
2011,02,27,08,39,8.10
2011,02,27,08,40,9.60
2011,02,27,08,41,4.80
2011,02,27,08,42,6.40
2011,02,27,08,43,8.10
2011,02,27,08,44,9.60
2011,02,27,08,45,9.60
2011,02,27,08,46,12.90
2011,02,27,08,47,8.10
2011,02,27,08,48,6.40
2011,02,27,08,49,9.60
2011,02,27,08,50,8.10
2011,02,27,08,51,11.30
2011,02,27,08,52,9.60
2011,02,27,08,53,8.10
2011,02,27,08,54,11.30
2011,02,27,08,55,6.40
2011,02,27,08,56,8.10
2011,02,27,08,57,9.60
2011,02,27,08,58,6.40
2011,02,27,08,59,12.90
2011,02,27,09,00,12.90
2011,02,27,09,01,16.10
2011,02,27,09,02,9.60
2011,02,27,09,03,6.40
2011,02,27,09,04,8.10
2011,02,27,09,05,9.60
2011,02,27,09,06,6.40
2011,02,27,09,07,1.60
2011,02,27,09,08,4.80
2011,02,27,09,09,4.80
2011,02,27,09,10,8.10
2011,02,27,09,11,11.30
2011,02,27,09,12,9.60
2011,02,27,09,13,9.60
2011,02,27,09,14,16.10
2011,02,27,09,15,14.50
2011,02,27,09,16,12.90
2011,02,27,09,17,8.10
2011,02,27,09,18,8.10
2011,02,27,09,19,8.10
2011,02,27,09,20,9.60
2011,02,27,09,21,11.30
2011,02,27,09,22,11.30
2011,02,27,09,23,14.50
2011,02,27,09,24,12.90
2011,02,27,09,25,11.30
2011,02,27,09,26,8.10
2011,02,27,09,27,6.40
2011,02,27,09,28,4.80
2011,02,27,09,29,3.20
2011,02,27,09,30,6.40
2011,02,27,09,31,8.10
2011,02,27,09,32,9.60
2011,02,27,09,33,6.40
2011,02,27,09,34,11.30
2011,02,27,09,35,8.10
2011,02,27,09,36,14.50
2011,02,27,09,37,9.60
2011,02,27,09,38,11.30
2011,02,27,09,39,9.60
2011,02,27,09,40,8.10
2011,02,27,09,41,9.60
2011,02,27,09,42,14.50
2011,02,27,09,43,11.30
2011,02,27,09,44,9.60
2011,02,27,09,45,19.30
2011,02,27,09,46,17.70
2011,02,27,09,47,14.50
2011,02,27,09,48,8.10
2011,02,27,09,49,6.40
2011,02,27,09,50,14.50
2011,02,27,09,51,11.30
2011,02,27,09,52,8.10
2011,02,27,09,53,12.90
2011,02,27,09,54,19.30
2011,02,27,09,55,16.10
2011,02,27,09,56,11.30
2011,02,27,09,57,19.30
2011,02,27,09,58,16.10
2011,02,27,09,59,16.10
2011,02,27,10,00,20.90
2011,02,27,10,01,12.90
2011,02,27,10,02,16.10
2011,02,27,10,03,12.90
2011,02,27,10,04,16.10
2011,02,27,10,05,14.50
2011,02,27,10,06,17.70
2011,02,27,10,07,16.10
2011,02,27,10,08,17.70
2011,02,27,10,09,14.50
2011,02,27,10,10,27.40
2011,02,27,10,11,24.20
2011,02,27,10,12,16.10
2011,02,27,10,13,16.10
2011,02,27,10,14,19.30
2011,02,27,10,15,17.70
2011,02,27,10,16,14.50
2011,02,27,10,17,12.90
2011,02,27,10,18,12.90
2011,02,27,10,19,11.30
2011,02,27,10,20,8.10
2011,02,27,10,21,11.30
2011,02,27,10,22,12.90
2011,02,27,10,23,11.30
2011,02,27,10,24,4.80
2011,02,27,10,25,4.80
2011,02,27,10,26,8.10
2011,02,27,10,27,9.60
2011,02,27,10,28,6.40
2011,02,27,10,29,11.30
2011,02,27,10,30,9.60
2011,02,27,10,31,6.40
2011,02,27,10,32,6.40
2011,02,27,10,33,6.40
2011,02,27,10,34,4.80
2011,02,27,10,35,4.80
2011,02,27,10,36,3.20
2011,02,27,10,37,4.80
2011,02,27,10,38,4.80
2011,02,27,10,39,3.20
2011,02,27,10,40,1.60
2011,02,27,10,41,1.60
2011,02,27,10,42,4.80
2011,02,27,10,43,1.60
2011,02,27,10,44,4.80
2011,02,27,10,45,8.10
2011,02,27,10,46,8.10
2011,02,27,10,47,11.30
2011,02,27,10,48,12.90
2011,02,27,10,49,8.10
2011,02,27,10,50,4.80
2011,02,27,10,51,1.60
2011,02,27,10,52,4.80
2011,02,27,10,53,6.40
2011,02,27,10,54,8.10
2011,02,27,10,55,6.40
2011,02,27,10,56,3.20
2011,02,27,10,57,3.20
2011,02,27,10,58,4.80
2011,02,27,10,59,4.80
2011,02,27,11,00,8.10
2011,02,27,11,01,6.40
2011,02,27,11,02,3.20
2011,02,27,11,03,4.80
2011,02,27,11,04,6.40
2011,02,27,11,05,4.80
2011,02,27,11,06,4.80
2011,02,27,11,07,4.80
2011,02,27,11,08,3.20
2011,02,27,11,09,3.20
2011,02,27,11,10,8.10
2011,02,27,11,11,6.40
2011,02,27,11,12,3.20
2011,02,27,11,13,3.20
2011,02,27,11,14,1.60
2011,02,27,11,15,1.60
2011,02,27,11,16,1.60
2011,02,27,11,17,1.60
2011,02,27,11,18,4.80
2011,02,27,11,19,6.40
2011,02,27,11,20,6.40
2011,02,27,11,21,6.40
2011,02,27,11,22,4.80
2011,02,27,11,23,4.80
2011,02,27,11,24,4.80
2011,02,27,11,25,6.40
2011,02,27,11,26,6.40
2011,02,27,11,27,3.20
2011,02,27,11,28,3.20
2011,02,27,11,29,3.20
2011,02,27,11,30,6.40
2011,02,27,11,31,3.20
2011,02,27,11,32,6.40
2011,02,27,11,33,6.40
2011,02,27,11,34,6.40
2011,02,27,11,35,6.40
2011,02,27,11,36,6.40
2011,02,27,11,37,8.10
2011,02,27,11,38,8.10
2011,02,27,11,39,6.40
2011,02,27,11,40,6.40
2011,02,27,11,41,6.40
2011,02,27,11,42,8.10
2011,02,27,11,43,6.40
2011,02,27,11,44,8.10
2011,02,27,11,45,8.10
2011,02,27,11,46,8.10
2011,02,27,11,47,9.60
2011,02,27,11,48,8.10
2011,02,27,11,49,6.40
2011,02,27,11,50,8.10
2011,02,27,11,51,6.40
2011,02,27,11,52,6.40
2011,02,27,11,53,8.10
2011,02,27,11,54,6.40
2011,02,27,11,55,6.40
2011,02,27,11,56,6.40
2011,02,27,11,57,6.40
2011,02,27,11,58,8.10
2011,02,27,11,59,4.80
2011,02,27,12,00,6.40
2011,02,27,12,01,9.60
2011,02,27,12,02,9.60
2011,02,27,12,03,6.40
2011,02,27,12,04,8.10
2011,02,27,12,05,8.10
2011,02,27,12,06,3.20
2011,02,27,12,07,3.20
2011,02,27,12,08,6.40
2011,02,27,12,09,8.10
2011,02,27,12,10,9.60
2011,02,27,12,11,9.60
2011,02,27,12,12,8.10
2011,02,27,12,13,6.40
2011,02,27,12,14,9.60
2011,02,27,12,15,11.30
2011,02,27,12,16,6.40
2011,02,27,12,17,8.10
2011,02,27,12,18,6.40
2011,02,27,12,19,6.40
2011,02,27,12,20,4.80
2011,02,27,12,21,8.10
2011,02,27,12,22,6.40
2011,02,27,12,23,4.80
2011,02,27,12,24,6.40
2011,02,27,12,25,4.80
2011,02,27,12,26,6.40
2011,02,27,12,27,11.30
2011,02,27,12,28,12.90
2011,02,27,12,29,8.10
2011,02,27,12,30,9.60
2011,02,27,12,31,9.60
2011,02,27,12,32,8.10
2011,02,27,12,33,6.40
2011,02,27,12,34,8.10
2011,02,27,12,35,8.10
2011,02,27,12,36,8.10
2011,02,27,12,37,8.10
2011,02,27,12,38,3.20
2011,02,27,12,39,1.60
2011,02,27,12,41,1.60
2011,02,27,12,42,3.20
2011,02,27,12,43,1.60
2011,02,27,12,44,6.40
2011,02,27,12,45,6.40
2011,02,27,12,46,3.20
2011,02,27,12,47,9.60
2011,02,27,12,48,8.10
2011,02,27,12,49,6.40
2011,02,27,12,50,4.80
2011,02,27,12,51,3.20
2011,02,27,12,53,6.40
2011,02,27,12,54,3.20
2011,02,27,12,55,3.20
2011,02,27,12,56,6.40
2011,02,27,12,57,9.60
2011,02,27,12,58,9.60
2011,02,27,12,59,6.40
2011,02,27,13,00,3.20
2011,02,27,13,01,3.20
2011,02,27,13,02,3.20
2011,02,27,13,03,6.40
2011,02,27,13,04,3.20
2011,02,27,13,05,3.20
2011,02,27,13,06,3.20
2011,02,27,13,07,3.20
2011,02,27,13,08,6.40
2011,02,27,13,09,4.80
2011,02,27,13,10,3.20
2011,02,27,13,11,6.40
2011,02,27,13,12,1.60
2011,02,27,13,13,1.60
2011,02,27,13,14,1.60
2011,02,27,13,15,1.60
2011,02,27,13,16,1.60
2011,02,27,13,17,1.60
2011,02,27,13,18,1.60
2011,02,27,13,19,4.80
2011,02,27,13,20,3.20
2011,02,27,13,21,4.80
2011,02,27,13,22,8.10
2011,02,27,13,23,6.40
2011,02,27,13,24,6.40
2011,02,27,13,25,8.10
2011,02,27,13,26,6.40
2011,02,27,13,27,6.40
2011,02,27,13,28,6.40
2011,02,27,13,29,6.40
2011,02,27,13,30,4.80
2011,02,27,13,31,4.80
2011,02,27,13,32,3.20
2011,02,27,13,33,8.10
2011,02,27,13,34,8.10
2011,02,27,13,35,6.40
2011,02,27,13,36,6.40
2011,02,27,13,37,6.40
2011,02,27,13,38,6.40
2011,02,27,13,39,8.10
2011,02,27,13,40,8.10
2011,02,27,13,41,8.10
2011,02,27,13,42,8.10
2011,02,27,13,43,14.50
2011,02,27,13,44,12.90
2011,02,27,13,45,6.40
2011,02,27,13,46,3.20
2011,02,27,13,47,6.40
2011,02,27,13,48,3.20
2011,02,27,13,49,3.20
2011,02,27,13,50,3.20
2011,02,27,13,51,1.60
2011,02,27,13,52,1.60
2011,02,27,13,53,1.60
2011,02,27,13,54,1.60
2011,02,27,13,55,3.20
2011,02,27,13,56,6.40
2011,02,27,13,57,6.40
2011,02,27,13,58,11.30
2011,02,27,13,59,14.50
2011,02,27,14,00,12.90
2011,02,27,14,01,16.10
2011,02,27,14,02,12.90
2011,02,27,14,03,6.40
2011,02,27,14,04,6.40
2011,02,27,14,05,8.10
2011,02,27,14,06,6.40
2011,02,27,14,07,4.80
2011,02,27,14,08,8.10
2011,02,27,14,09,4.80
2011,02,27,14,10,3.20
2011,02,27,14,11,4.80
2011,02,27,14,12,11.30
2011,02,27,14,13,11.30
2011,02,27,14,14,4.80
2011,02,27,14,15,8.10
2011,02,27,14,16,8.10
2011,02,27,14,17,4.80
2011,02,27,14,18,4.80
2011,02,27,14,19,6.40
2011,02,27,14,20,4.80
2011,02,27,14,21,4.80
2011,02,27,14,22,4.80
2011,02,27,14,23,8.10
2011,02,27,14,24,8.10
2011,02,27,14,25,4.80
2011,02,27,14,26,3.20
2011,02,27,14,27,1.60
2011,02,27,14,28,1.60
2011,02,27,14,29,1.60
2011,02,27,14,30,1.60
2011,02,27,14,31,1.60
2011,02,27,14,32,6.40
2011,02,27,14,33,1.60
2011,02,27,14,34,3.20
2011,02,27,14,35,3.20
2011,02,27,14,36,4.80
2011,02,27,14,37,6.40
2011,02,27,14,38,14.50
2011,02,27,14,39,12.90
2011,02,27,14,40,9.60
2011,02,27,14,41,9.60
2011,02,27,14,42,6.40
2011,02,27,14,43,12.90
2011,02,27,14,44,20.90
2011,02,27,14,45,14.50
2011,02,27,14,46,12.90
2011,02,27,14,47,9.60
2011,02,27,14,48,19.30
2011,02,27,14,49,12.90
2011,02,27,14,50,11.30
2011,02,27,14,51,8.10
2011,02,27,14,52,14.50
2011,02,27,14,53,12.90
2011,02,27,14,54,14.50
2011,02,27,14,55,12.90
2011,02,27,14,56,12.90
2011,02,27,14,57,16.10
2011,02,27,14,58,14.50
2011,02,27,14,59,8.10
2011,02,27,15,00,9.60
2011,02,27,15,01,4.80
2011,02,27,15,02,6.40
2011,02,27,15,03,4.80
2011,02,27,15,04,6.40
2011,02,27,15,05,4.80
2011,02,27,15,06,4.80
2011,02,27,15,07,6.40
2011,02,27,15,08,6.40
2011,02,27,15,09,11.30
2011,02,27,15,10,8.10
2011,02,27,15,11,8.10
2011,02,27,15,12,3.20
2011,02,27,15,13,8.10
2011,02,27,15,14,4.80
2011,02,27,15,15,3.20
2011,02,27,15,16,4.80
2011,02,27,15,17,8.10
2011,02,27,15,18,3.20
2011,02,27,15,19,11.30
2011,02,27,15,20,9.60
2011,02,27,15,21,11.30
2011,02,27,15,22,8.10
2011,02,27,15,23,6.40
2011,02,27,15,24,8.10
2011,02,27,15,25,8.10
2011,02,27,15,26,9.60
2011,02,27,15,27,6.40
2011,02,27,15,28,8.10
2011,02,27,15,29,6.40
2011,02,27,15,30,1.60
2011,02,27,15,31,4.80
2011,02,27,15,32,6.40
2011,02,27,15,33,9.60
2011,02,27,15,34,9.60
2011,02,27,15,35,16.10
2011,02,27,15,36,14.50
2011,02,27,15,37,6.40
2011,02,27,15,38,9.60
2011,02,27,15,39,11.30
2011,02,27,15,40,11.30
2011,02,27,15,41,6.40
2011,02,27,15,42,11.30
2011,02,27,15,43,12.90
2011,02,27,15,44,12.90
2011,02,27,15,45,11.30
2011,02,27,15,46,12.90
2011,02,27,15,47,9.60
2011,02,27,15,48,8.10
2011,02,27,15,49,6.40
2011,02,27,15,50,8.10
2011,02,27,15,51,9.60
2011,02,27,15,52,9.60
2011,02,27,15,53,9.60
2011,02,27,15,54,11.30
2011,02,27,15,55,8.10
2011,02,27,15,56,12.90
2011,02,27,15,57,11.30
2011,02,27,15,58,9.60
2011,02,27,15,59,9.60
2011,02,27,16,00,11.30
2011,02,27,16,01,12.90
2011,02,27,16,02,8.10
2011,02,27,16,03,17.70
2011,02,27,16,04,19.30
2011,02,27,16,05,19.30
2011,02,27,16,06,11.30
2011,02,27,16,07,11.30
2011,02,27,16,08,14.50
2011,02,27,16,09,22.50
2011,02,27,16,10,17.70
2011,02,27,16,11,24.20
2011,02,27,16,12,17.70
2011,02,27,16,13,16.10
2011,02,27,16,14,9.60
2011,02,27,16,15,8.10
2011,02,27,16,16,12.90
2011,02,27,16,17,9.60
2011,02,27,16,18,9.60
2011,02,27,16,19,11.30
2011,02,27,16,20,17.70
2011,02,27,16,21,22.50
2011,02,27,16,22,12.90
2011,02,27,16,23,20.90
2011,02,27,16,24,20.90
2011,02,27,16,25,17.70
2011,02,27,16,26,19.30
2011,02,27,16,27,19.30
2011,02,27,16,28,12.90
2011,02,27,16,29,17.70
2011,02,27,16,30,14.50
2011,02,27,16,31,12.90
2011,02,27,16,32,12.90
2011,02,27,16,33,9.60
2011,02,27,16,34,12.90
2011,02,27,16,35,12.90
2011,02,27,16,36,11.30
2011,02,27,16,37,11.30
2011,02,27,16,38,8.10
2011,02,27,16,39,3.20
2011,02,27,16,40,3.20
2011,02,27,16,41,4.80
2011,02,27,16,42,8.10
2011,02,27,16,43,6.40
2011,02,27,16,44,1.60
2011,02,27,16,45,4.80
2011,02,27,16,46,6.40
2011,02,27,16,47,4.80
2011,02,27,16,48,4.80
2011,02,27,16,49,14.50
2011,02,27,16,50,11.30
2011,02,27,16,51,11.30
2011,02,27,16,52,11.30
2011,02,27,16,53,6.40
2011,02,27,16,54,4.80
2011,02,27,16,55,12.90
2011,02,27,16,56,9.60
2011,02,27,16,57,9.60
2011,02,27,16,58,6.40
2011,02,27,16,59,9.60
2011,02,27,17,00,12.90
2011,02,27,17,01,12.90
2011,02,27,17,02,8.10
2011,02,27,17,03,8.10
2011,02,27,17,04,6.40
2011,02,27,17,05,6.40
2011,02,27,17,06,12.90
2011,02,27,17,07,22.50
2011,02,27,17,08,12.90
2011,02,27,17,09,19.30
2011,02,27,17,10,24.20
2011,02,27,17,11,25.70
2011,02,27,17,12,17.70
2011,02,27,17,13,19.30
2011,02,27,17,14,20.90
2011,02,27,17,15,20.90
2011,02,27,17,16,14.50
2011,02,27,17,17,19.30
2011,02,27,17,18,17.70
2011,02,27,17,19,8.10
2011,02,27,17,20,6.40
2011,02,27,17,21,12.90
2011,02,27,17,22,9.60
2011,02,27,17,23,19.30
2011,02,27,17,24,11.30
2011,02,27,17,25,8.10
2011,02,27,17,26,8.10
2011,02,27,17,27,9.60
2011,02,27,17,28,9.60
2011,02,27,17,29,11.30
2011,02,27,17,30,14.50
2011,02,27,17,31,16.10
2011,02,27,17,32,12.90
2011,02,27,17,33,19.30
2011,02,27,17,34,16.10
2011,02,27,17,35,22.50
2011,02,27,17,36,12.90
2011,02,27,17,37,9.60
2011,02,27,17,38,9.60
2011,02,27,17,39,11.30
2011,02,27,17,40,9.60
2011,02,27,17,41,8.10
2011,02,27,17,42,8.10
2011,02,27,17,43,4.80
2011,02,27,17,44,6.40
2011,02,27,17,45,8.10
2011,02,27,17,46,4.80
2011,02,27,17,47,3.20
2011,02,27,17,48,3.20
2011,02,27,17,49,3.20
2011,02,27,17,50,4.80
2011,02,27,17,51,6.40
2011,02,27,17,52,6.40
2011,02,27,17,53,4.80
2011,02,27,17,54,6.40
2011,02,27,17,55,6.40
2011,02,27,17,56,11.30
2011,02,27,17,57,6.40
2011,02,27,17,58,3.20
2011,02,27,17,59,4.80
2011,02,27,18,00,8.10
2011,02,27,18,01,4.80
2011,02,27,18,02,6.40
2011,02,27,18,03,4.80
2011,02,27,18,04,4.80
2011,02,27,18,05,8.10
2011,02,27,18,06,11.30
2011,02,27,18,07,4.80
2011,02,27,18,08,12.90
2011,02,27,18,09,12.90
2011,02,27,18,10,6.40
2011,02,27,18,11,4.80
2011,02,27,18,12,4.80
2011,02,27,18,13,8.10
2011,02,27,18,14,8.10
2011,02,27,18,15,3.20
2011,02,27,18,16,6.40
2011,02,27,18,17,4.80
2011,02,27,18,18,6.40
2011,02,27,18,19,3.20
2011,02,27,18,20,14.50